DK5BM-6 Weather Reports


Display with metric or nautical units.
time (UTC)temp
F
wind
direction
speed
MPH
gust
MPH
rain 1hr
in
rain 24hr
in
rain mn
in
humidity
%
barometer
mb
20260505225300 51 157 0.0 4.0 0.00 0.51 0.00 95 1012.4
20260505225200 51 157 0.0 4.0 0.00 0.51 0.00 95 1012.3
20260505225101 51 157 0.0 4.0 0.00 0.51 0.00 95 1012.3
20260505225001 51 157 1.0 4.0 0.00 0.51 0.00 95 1012.5
20260505224901 51 157 1.0 4.0 0.00 0.51 0.00 95 1012.3
20260505224700 51 158 2.0 7.0 0.00 0.51 0.00 95 1012.3
20260505224600 51 157 2.0 7.0 0.00 0.51 0.00 95 1012.3
20260505224400 51 159 0.0 7.0 0.00 0.51 0.00 95 1012.3
20260505224301 51 156 2.0 7.0 0.00 0.51 0.00 95 1012.2
20260505224201 51 154 0.0 7.0 0.00 0.51 0.00 95 1012.3
20260505224101 51 155 1.0 7.0 0.00 0.51 0.00 95 1012.3
20260505224000 51 155 0.0 7.0 0.00 0.51 0.00 95 1012.3
20260505223801 51 154 0.0 7.0 0.00 0.51 0.00 95 1012.2
20260505223701 51 155 3.0 7.0 0.00 0.51 0.00 95 1012.3
20260505223601 51 149 2.0 7.0 0.00 0.51 0.00 95 1012.4
20260505223500 51 145 2.0 7.0 0.00 0.51 0.00 95 1012.4
20260505223400 51 141 2.0 7.0 0.00 0.51 0.00 95 1012.4
20260505223300 51 137 1.0 7.0 0.00 0.51 0.00 95 1012.3
20260505223201 51 136 1.0 7.0 0.00 0.51 0.00 95 1012.5
20260505223101 51 134 2.0 7.0 0.00 0.51 0.00 95 1012.3
20260505223002 51 135 1.0 7.0 0.00 0.51 0.00 95 1012.3
20260505222901 51 137 2.0 7.0 0.00 0.51 0.00 95 1012.1
20260505222700 51 132 2.0 6.0 0.00 0.51 0.00 95 1012.1
20260505222600 51 138 2.0 6.0 0.00 0.51 0.00 95 1012.3
20260505222501 51 139 1.0 6.0 0.00 0.51 0.00 95 1012.3
20260505222401 51 144 2.0 6.0 0.00 0.51 0.00 95 1012.0
20260505222201 51 146 0.0 6.0 0.00 0.51 0.00 95 1012.2
20260505222000 51 143 1.0 6.0 0.00 0.51 0.00 95 1012.3
20260505221900 51 140 1.0 6.0 0.00 0.51 0.00 95 1012.4
20260505221801 51 140 2.0 6.0 0.00 0.51 0.00 95 1012.5
20260505221601 51 137 0.0 6.0 0.00 0.51 0.00 95 1012.4
20260505221401 51 132 2.0 6.0 0.00 0.51 0.00 95 1012.4
20260505221301 51 138 1.0 4.0 0.00 0.51 0.00 95 1012.2
20260505221200 51 137 2.0 4.0 0.00 0.51 0.00 95 1012.2
20260505221100 51 139 1.0 4.0 0.00 0.51 0.00 95 1012.3
20260505221001 51 137 1.0 4.0 0.00 0.51 0.00 95 1012.2
20260505220901 51 137 1.0 4.0 0.00 0.51 0.00 95 1012.3
20260505220701 51 136 2.0 6.0 0.00 0.51 0.00 95 1012.3
20260505220600 51 133 2.0 6.0 0.00 0.51 0.00 95 1012.4
20260505220500 51 132 2.0 6.0 0.00 0.51 0.00 95 1012.2
20260505220401 51 132 2.0 6.0 0.00 0.51 0.00 95 1012.2
20260505220301 51 127 0.0 6.0 0.00 0.51 0.00 95 1012.4
20260505220101 51 121 2.0 6.0 0.00 0.51 0.00 95 1012.5
20260505220002 52 118 1.0 6.0 0.00 0.51 0.00 95 1012.3
20260505215901 52 113 2.0 6.0 0.00 0.51 0.51 95 1012.4
20260505215701 52 108 2.0 6.0 0.00 0.51 0.51 95 1012.3
20260505215601 52 109 1.0 4.0 0.00 0.51 0.51 95 1012.3
20260505215501 51 112 0.0 4.0 0.00 0.51 0.51 95 1012.0
20260505215301 52 109 1.0 4.0 0.00 0.51 0.51 95 1012.1
20260505215201 52 107 1.0 4.0 0.00 0.51 0.51 95 1012.3
20260505215100 52 110 2.0 4.0 0.00 0.51 0.51 95 1012.3
20260505215000 51 112 0.0 4.0 0.00 0.51 0.51 95 1012.3
20260505214901 51 121 0.0 4.0 0.00 0.51 0.51 95 1012.3
20260505214801 51 126 0.0 4.0 0.00 0.51 0.51 95 1012.2
20260505214701 51 125 0.0 4.0 0.00 0.51 0.51 95 1012.2
20260505214600 52 123 1.0 4.0 0.00 0.51 0.51 95 1012.3
20260505214502 51 127 0.0 4.0 0.00 0.51 0.51 95 1012.5
20260505214400 51 132 0.0 4.0 0.00 0.51 0.51 95 1012.3
20260505214300 52 133 0.0 4.0 0.00 0.51 0.51 95 1012.2
20260505214201 52 133 1.0 4.0 0.00 0.51 0.51 95 1012.1
20260505214101 52 141 1.0 4.0 0.00 0.51 0.51 95 1012.3
20260505214000 52 145 0.0 4.0 0.00 0.51 0.51 95 1012.3
20260505213900 52 140 0.0 4.0 0.00 0.51 0.51 96 1012.3
20260505213800 52 138 0.0 4.0 0.00 0.51 0.51 96 1012.0
20260505213701 52 138 0.0 4.0 0.00 0.51 0.51 96 1012.2
20260505213501 52 135 0.0 4.0 0.00 0.51 0.51 96 1012.3
20260505213400 52 135 1.0 4.0 0.00 0.51 0.51 96 1012.1
20260505213300 52 135 0.0 4.0 0.00 0.51 0.51 96 1012.3
20260505213201 52 135 0.0 4.0 0.00 0.51 0.51 96 1012.3
20260505213101 51 132 0.0 4.0 0.00 0.51 0.51 96 1012.5
20260505213003 52 131 0.0 4.0 0.00 0.51 0.51 96 1012.5
20260505212901 52 130 0.0 4.0 0.00 0.51 0.51 96 1012.4
20260505212801 51 133 0.0 4.0 0.00 0.51 0.51 96 1012.3
20260505212700 51 136 0.0 4.0 0.00 0.51 0.51 96 1012.4
20260505212600 51 136 1.0 4.0 0.00 0.51 0.51 96 1012.5
20260505212301 51 137 0.0 2.0 0.00 0.51 0.51 96 1012.6
20260505212201 51 141 0.0 2.0 0.00 0.51 0.51 96 1012.6
20260505212100 51 149 1.0 2.0 0.00 0.51 0.51 96 1012.3
20260505211901 51 150 0.0 4.0 0.00 0.51 0.51 96 1012.3
20260505211801 51 148 1.0 4.0 0.00 0.51 0.51 96 1012.2
20260505211701 51 148 0.0 4.0 0.00 0.51 0.51 96 1012.3
20260505211600 51 139 0.0 4.0 0.00 0.51 0.51 96 1012.4
20260505211502 51 141 0.0 4.0 0.00 0.51 0.51 96 1012.4
20260505211401 51 141 0.0 4.0 0.00 0.51 0.51 96 1012.3
20260505211300 51 141 0.0 4.0 0.00 0.51 0.51 96 1012.5
20260505211200 51 140 0.0 4.0 0.00 0.51 0.51 96 1012.4
20260505211101 51 137 0.0 4.0 0.00 0.51 0.51 96 1012.4
20260505211001 51 137 0.0 4.0 0.00 0.51 0.51 96 1012.3
20260505210901 51 138 2.0 4.0 0.00 0.51 0.51 96 1012.5
20260505210801 51 136 0.0 4.0 0.00 0.51 0.51 96 1012.5
20260505210700 51 128 1.0 4.0 0.00 0.51 0.51 96 1012.4
20260505210601 51 158 0.0 2.0 0.00 0.51 0.51 96 1012.5
20260505210501 51 0 0.0 0.0 0.00 0.51 0.51 96 1012.3
20260505210401 51 0 0.0 0.0 0.00 0.51 0.51 96 1012.3
20260505210301 51 0 0.0 0.0 0.00 0.51 0.51 96 1012.4
20260505210200 51 0 0.0 0.0 0.00 0.51 0.51 96 1012.3
20260505210100 51 0 0.0 0.0 0.00 0.51 0.51 96 1012.4
20260505205900 51 0 0.0 0.0 0.00 0.51 0.51 96 1012.5
20260505205801 51 0 0.0 0.0 0.00 0.51 0.51 96 1012.3
20260505205501 51 0 0.0 0.0 0.00 0.51 0.51 96 1012.1
20260505205401 51 0 0.0 0.0 0.00 0.51 0.51 96 1012.3
20260505205101 51 0 0.0 0.0 0.00 0.51 0.51 96 1012.1
20260505205000 51 0 0.0 0.0 0.00 0.51 0.51 96 1012.0
20260505204801 51 0 0.0 0.0 0.00 0.51 0.51 96 1012.3
20260505204701 51 0 0.0 0.0 0.00 0.51 0.51 96 1012.3
20260505204601 51 0 0.0 0.0 0.00 0.51 0.51 96 1012.3
20260505204502 51 0 0.0 0.0 0.00 0.51 0.51 96 1012.3
20260505204401 51 0 0.0 0.0 0.00 0.51 0.51 96 1012.2
20260505204200 51 0 0.0 0.0 0.00 0.51 0.51 96 1012.3
20260505204100 52 0 0.0 0.0 0.00 0.51 0.51 96 1012.3
20260505204001 51 0 0.0 0.0 0.00 0.51 0.51 96 1012.1
20260505203701 51 0 0.0 0.0 0.00 0.51 0.51 96 1012.1
20260505203601 51 0 0.0 0.0 0.00 0.51 0.51 96 1012.2
20260505203500 51 0 0.0 0.0 0.00 0.51 0.51 96 1012.2
20260505203401 51 0 0.0 0.0 0.00 0.51 0.51 96 1012.3
20260505203301 51 0 0.0 0.0 0.00 0.51 0.51 96 1012.2
20260505203201 52 0 0.0 0.0 0.00 0.51 0.51 96 1012.0
20260505203101 52 0 0.0 0.0 0.00 0.51 0.51 96 1012.3
20260505203003 52 0 0.0 0.0 0.00 0.51 0.51 96 1012.2
20260505202901 52 0 0.0 0.0 0.00 0.51 0.51 96 1012.1
20260505202801 52 0 0.0 0.0 0.00 0.51 0.51 96 1012.1
20260505202700 52 0 0.0 0.0 0.00 0.51 0.51 95 1012.2
20260505202500 52 0 0.0 0.0 0.00 0.51 0.51 95 1012.2
20260505202401 52 0 0.0 0.0 0.00 0.51 0.51 95 1012.2
20260505202301 52 0 0.0 0.0 0.00 0.51 0.51 95 1012.1
20260505202201 52 0 0.0 0.0 0.00 0.51 0.51 95 1012.0
20260505202000 52 0 0.0 0.0 0.00 0.51 0.51 95 1012.0
20260505201900 52 0 0.0 0.0 0.00 0.51 0.51 95 1012.1
20260505201800 52 0 0.0 0.0 0.00 0.51 0.51 95 1012.1
20260505201502 52 0 0.0 0.0 0.00 0.51 0.51 95 1011.9
20260505201401 52 0 0.0 0.0 0.00 0.51 0.51 95 1011.8
20260505201301 52 0 0.0 0.0 0.00 0.51 0.51 95 1012.0
20260505201201 52 0 0.0 0.0 0.00 0.51 0.51 95 1011.8
20260505201100 52 0 0.0 0.0 0.00 0.51 0.51 95 1012.0
20260505201001 52 0 0.0 0.0 0.00 0.51 0.51 95 1012.1
20260505200901 52 0 0.0 0.0 0.00 0.51 0.51 95 1012.1
20260505200801 52 0 0.0 0.0 0.00 0.51 0.51 95 1012.0
20260505200700 52 0 0.0 0.0 0.00 0.51 0.51 95 1012.1
20260505200500 52 0 0.0 0.0 0.00 0.51 0.51 95 1012.2
20260505200401 52 158 0.0 2.0 0.00 0.51 0.51 95 1012.0
20260505200301 52 158 0.0 4.0 0.00 0.51 0.51 95 1012.2
20260505200201 52 158 0.0 4.0 0.00 0.51 0.51 95 1011.9
20260505200101 52 152 0.0 4.0 0.00 0.51 0.51 95 1011.9
20260505200003 52 153 0.0 4.0 0.00 0.51 0.51 95 1011.9
20260505195901 52 154 0.0 4.0 0.00 0.51 0.51 95 1011.9
20260505195701 52 155 0.0 4.0 0.00 0.51 0.51 95 1011.9
20260505195600 52 152 0.0 4.0 0.00 0.51 0.51 94 1012.0
20260505195501 52 149 1.0 4.0 0.00 0.51 0.51 94 1012.0
20260505195401 52 146 1.0 4.0 0.00 0.51 0.51 94 1011.9
20260505195300 52 145 0.0 4.0 0.00 0.51 0.51 94 1011.8
20260505195201 52 146 0.0 4.0 0.00 0.51 0.51 94 1011.9
20260505195101 52 146 0.0 4.0 0.00 0.51 0.51 94 1011.8
20260505195001 52 145 0.0 4.0 0.00 0.51 0.51 94 1011.9
20260505194900 52 144 0.0 4.0 0.00 0.51 0.51 94 1012.0
20260505194801 52 143 0.0 4.0 0.00 0.51 0.51 94 1011.8
20260505194701 52 143 1.0 4.0 0.00 0.51 0.51 94 1011.9
20260505194502 52 142 0.0 4.0 0.00 0.51 0.51 94 1011.8
20260505194401 52 145 2.0 4.0 0.00 0.51 0.51 94 1011.8
20260505194300 52 145 0.0 4.0 0.00 0.51 0.51 94 1011.8
20260505194201 52 143 1.0 4.0 0.00 0.51 0.51 94 1011.7
20260505194101 52 143 0.0 4.0 0.00 0.51 0.51 94 1011.8
20260505194001 52 141 1.0 4.0 0.00 0.51 0.51 95 1011.8
20260505193901 52 142 0.0 4.0 0.00 0.51 0.51 95 1011.9
20260505193800 52 142 0.0 4.0 0.00 0.51 0.51 94 1011.8
20260505193700 52 143 2.0 4.0 0.00 0.51 0.51 94 1011.7
20260505193601 52 145 1.0 4.0 0.00 0.51 0.51 95 1011.8
20260505193501 52 141 2.0 4.0 0.00 0.51 0.51 94 1011.9
20260505193401 52 137 2.0 4.0 0.00 0.51 0.51 94 1011.8
20260505193201 52 134 2.0 4.0 0.00 0.51 0.51 94 1011.8
20260505193101 52 133 2.0 4.0 0.00 0.51 0.51 94 1012.0
20260505193003 52 131 0.0 4.0 0.00 0.51 0.51 94 1011.8
20260505192901 52 128 2.0 4.0 0.00 0.51 0.51 94 1011.7
20260505192701 52 127 0.0 4.0 0.00 0.51 0.51 94 1011.8
20260505192601 52 125 2.0 4.0 0.00 0.51 0.51 94 1011.6
20260505192501 53 125 1.0 4.0 0.00 0.51 0.51 94 1011.8
20260505192401 53 126 1.0 4.0 0.00 0.51 0.51 94 1011.9
20260505192301 53 126 0.0 4.0 0.00 0.51 0.51 94 1011.7
20260505192101 53 124 2.0 4.0 0.00 0.51 0.51 94 1011.8
20260505192001 53 126 1.0 4.0 0.00 0.51 0.51 94 1011.8
20260505191901 53 125 1.0 4.0 0.00 0.51 0.51 94 1011.9
20260505191801 53 120 2.0 4.0 0.00 0.51 0.51 94 1011.7
20260505191701 53 115 2.0 4.0 0.00 0.51 0.51 94 1011.7
20260505191601 53 113 2.0 4.0 0.00 0.51 0.51 94 1011.8
20260505191502 53 110 0.0 4.0 0.00 0.51 0.51 94 1011.9
20260505191401 53 110 0.0 4.0 0.00 0.51 0.51 94 1011.7
20260505191301 53 110 1.0 7.0 0.00 0.51 0.51 94 1011.7
20260505191201 53 109 0.0 7.0 0.00 0.51 0.51 94 1011.5
20260505191100 53 109 0.0 7.0 0.00 0.51 0.51 94 1011.7
20260505191001 53 113 2.0 7.0 0.00 0.51 0.51 94 1011.6
20260505190801 53 116 2.0 7.0 0.00 0.51 0.51 94 1011.6
20260505190701 53 116 0.0 7.0 0.00 0.51 0.51 94 1011.4
20260505190601 53 117 2.0 7.0 0.00 0.51 0.51 94 1011.4
20260505190501 53 118 0.0 7.0 0.00 0.51 0.51 94 1011.5
20260505190301 53 113 1.0 6.0 0.00 0.51 0.51 94 1011.7
20260505185901 53 118 3.0 6.0 0.00 0.51 0.51 94 1011.7
20260505185801 53 114 2.0 6.0 0.00 0.51 0.51 94 1011.8
20260505185600 53 111 1.0 6.0 0.00 0.51 0.51 94 1011.5
20260505185501 53 112 1.0 6.0 0.00 0.51 0.51 94 1011.3
20260505185401 53 117 2.0 4.0 0.00 0.51 0.51 94 1011.6
20260505185200 53 117 1.0 4.0 0.00 0.51 0.51 94 1011.7
20260505185101 53 110 2.0 4.0 0.00 0.51 0.51 94 1011.5
20260505185001 53 106 1.0 4.0 0.00 0.51 0.51 94 1011.5
20260505184901 53 105 1.0 7.0 0.00 0.51 0.51 94 1011.3
20260505184801 53 113 2.0 7.0 0.00 0.51 0.51 94 1011.3
20260505184502 53 123 2.0 7.0 0.00 0.51 0.51 94 1011.4
20260505184401 53 122 2.0 7.0 0.00 0.51 0.51 94 1011.4
20260505184300 53 123 1.0 7.0 0.00 0.51 0.51 94 1011.3
20260505184201 53 126 2.0 7.0 0.00 0.51 0.51 94 1011.6
20260505184101 53 130 2.0 7.0 0.00 0.51 0.51 94 1011.4
20260505184001 53 134 2.0 7.0 0.00 0.51 0.51 94 1011.5
20260505183900 53 138 4.0 7.0 0.00 0.51 0.51 94 1011.3
20260505183801 53 136 4.0 6.0 0.00 0.51 0.51 94 1011.5
20260505183701 53 133 4.0 6.0 0.00 0.51 0.51 94 1011.5
20260505183501 53 135 2.0 6.0 0.00 0.51 0.51 94 1011.2
20260505183401 54 136 1.0 7.0 0.00 0.51 0.51 94 1011.3
20260505183201 53 135 3.0 7.0 0.00 0.51 0.51 94 1011.3
20260505183101 54 135 2.0 7.0 0.00 0.51 0.51 94 1011.4
20260505183003 54 133 2.0 7.0 0.00 0.51 0.51 94 1011.5
20260505182901 54 131 1.0 7.0 0.00 0.51 0.51 94 1011.6
20260505182800 54 129 1.0 7.0 0.00 0.51 0.51 94 1011.5
20260505182700 54 127 3.0 7.0 0.00 0.51 0.51 95 1011.4
20260505182601 54 126 3.0 7.0 0.00 0.51 0.51 95 1011.3
20260505182501 54 120 3.0 7.0 0.00 0.51 0.51 95 1011.4
20260505182401 54 115 2.0 7.0 0.00 0.51 0.51 95 1011.2
20260505182301 54 112 2.0 7.0 0.00 0.51 0.51 95 1011.3
20260505182201 54 108 2.0 7.0 0.00 0.51 0.51 95 1011.4
20260505182101 54 106 1.0 6.0 0.00 0.51 0.51 95 1011.3
20260505182001 54 105 2.0 6.0 0.00 0.51 0.51 95 1011.3
20260505181800 54 102 2.0 6.0 0.00 0.51 0.51 95 1011.5
20260505181701 54 103 2.0 6.0 0.00 0.51 0.51 95 1011.4
20260505181601 54 105 2.0 6.0 0.01 0.51 0.51 95 1011.3
20260505181503 54 115 2.0 6.0 0.01 0.51 0.51 95 1011.3
20260505181401 54 123 2.0 4.0 0.01 0.51 0.51 95 1011.1
20260505181301 54 121 0.0 4.0 0.01 0.51 0.51 95 1011.2
20260505181201 54 117 1.0 4.0 0.02 0.51 0.51 95 1011.5
20260505181100 54 112 1.0 4.0 0.04 0.51 0.51 96 1011.3
20260505181000 54 114 2.0 4.0 0.04 0.51 0.51 95 1011.5
20260505180901 54 119 0.0 4.0 0.04 0.51 0.51 96 1011.2
20260505180601 54 102 1.0 4.0 0.05 0.51 0.51 96 1011.2
20260505180501 54 90 0.0 2.0 0.05 0.51 0.51 96 1011.3
20260505180401 54 90 1.0 2.0 0.06 0.51 0.51 96 1011.3
20260505180301 54 90 1.0 2.0 0.06 0.51 0.51 96 1011.2
20260505180201 54 90 1.0 2.0 0.06 0.51 0.51 96 1011.2
20260505180100 54 90 0.0 2.0 0.06 0.51 0.51 96 1011.3
20260505180002 54 90 0.0 2.0 0.06 0.51 0.51 96 1011.1
20260505175901 54 90 0.0 2.0 0.06 0.51 0.51 96 1011.1
20260505175801 54 90 1.0 2.0 0.07 0.51 0.51 96 1011.2
20260505175701 54 90 1.0 2.0 0.08 0.51 0.51 96 1011.0
20260505175601 54 90 0.0 2.0 0.08 0.51 0.51 96 1011.3
20260505175501 54 90 0.0 2.0 0.09 0.51 0.51 96 1011.3
20260505175400 54 90 0.0 2.0 0.09 0.51 0.51 96 1011.2
20260505175101 54 90 1.0 2.0 0.11 0.51 0.51 96 1011.2
20260505175001 54 90 0.0 2.0 0.11 0.51 0.51 96 1011.3
20260505174901 54 90 0.0 2.0 0.11 0.51 0.51 96 1011.1
20260505174800 54 90 0.0 2.0 0.11 0.51 0.51 96 1011.1
20260505174601 54 83 0.0 2.0 0.11 0.51 0.51 95 1011.0
20260505174503 54 76 0.0 2.0 0.11 0.51 0.51 95 1010.8
20260505174201 54 68 0.0 2.0 0.11 0.51 0.51 95 1011.0
20260505174101 54 68 0.0 2.0 0.11 0.51 0.51 95 1011.0
20260505173901 54 68 0.0 2.0 0.11 0.51 0.51 95 1010.8
20260505173801 54 68 0.0 2.0 0.11 0.51 0.51 95 1011.2
20260505173701 54 68 0.0 2.0 0.11 0.51 0.51 95 1011.1
20260505173601 54 68 0.0 2.0 0.11 0.51 0.51 95 1011.2
20260505173501 55 68 0.0 2.0 0.11 0.51 0.51 95 1011.1
20260505173300 55 135 0.0 2.0 0.11 0.51 0.51 94 1011.3
20260505173201 55 135 0.0 2.0 0.11 0.51 0.51 94 1011.3
20260505173101 55 135 0.0 2.0 0.11 0.51 0.51 94 1011.0
20260505173003 55 135 0.0 2.0 0.11 0.51 0.51 94 1011.0
20260505172901 54 135 0.0 2.0 0.11 0.51 0.51 94 1011.0
20260505172801 54 135 0.0 2.0 0.11 0.51 0.51 94 1011.0
20260505172701 54 127 0.0 2.0 0.11 0.51 0.51 94 1011.0
20260505172601 54 111 0.0 2.0 0.11 0.51 0.51 94 1010.9
20260505172501 54 96 0.0 2.0 0.11 0.51 0.51 94 1011.0
20260505172401 54 86 1.0 2.0 0.11 0.51 0.51 94 1011.1
20260505172201 54 84 0.0 2.0 0.11 0.51 0.51 94 1011.1
20260505172101 54 88 0.0 2.0 0.11 0.51 0.51 94 1010.9
20260505171800 54 96 0.0 2.0 0.11 0.51 0.51 94 1011.3
20260505171701 55 98 2.0 2.0 0.09 0.50 0.50 94 1011.2
20260505171601 55 102 2.0 2.0 0.09 0.50 0.50 94 1011.2
20260505171503 55 110 1.0 2.0 0.09 0.50 0.50 94 1011.0
20260505171401 54 117 1.0 2.0 0.09 0.50 0.50 93 1011.2
20260505171301 55 116 1.0 2.0 0.08 0.48 0.48 93 1011.1
20260505171200 55 116 0.0 2.0 0.07 0.47 0.47 93 1011.1
20260505171100 55 117 0.0 2.0 0.07 0.47 0.47 93 1011.1
20260505171001 55 119 0.0 2.0 0.07 0.47 0.47 93 1011.3
20260505170801 55 118 1.0 2.0 0.06 0.46 0.46 93 1011.4
20260505170701 55 114 0.0 4.0 0.06 0.46 0.46 93 1011.5
20260505170601 55 112 0.0 4.0 0.06 0.46 0.46 93 1011.3
20260505170501 55 111 0.0 4.0 0.06 0.46 0.46 93 1011.4
20260505170301 56 107 0.0 4.0 0.05 0.45 0.45 92 1011.5
20260505170101 56 105 0.0 4.0 0.05 0.45 0.45 92 1011.7
20260505170002 56 104 0.0 4.0 0.05 0.45 0.45 91 1011.7
20260505165900 56 102 2.0 4.0 0.04 0.44 0.44 91 1011.5
20260505165801 56 101 2.0 4.0 0.04 0.44 0.44 90 1011.8
20260505165701 56 99 1.0 4.0 0.02 0.43 0.43 90 1011.8
20260505165601 56 99 1.0 4.0 0.02 0.43 0.43 90 1011.8
20260505165501 56 96 1.0 2.0 0.01 0.41 0.41 89 1011.5
20260505165400 56 93 1.0 2.0 0.01 0.41 0.41 88 1011.5
20260505165300 56 92 0.0 2.0 0.00 0.40 0.40 88 1011.4
20260505165201 56 92 0.0 2.0 0.00 0.40 0.40 88 1011.3
20260505165001 56 98 0.0 4.0 0.00 0.40 0.40 88 1011.4
20260505164901 56 90 0.0 4.0 0.00 0.40 0.40 88 1011.3
20260505164801 56 84 0.0 4.0 0.00 0.40 0.40 88 1011.4
20260505164600 56 71 0.0 4.0 0.00 0.40 0.40 88 1011.3
20260505164502 56 70 0.0 4.0 0.00 0.40 0.40 88 1011.0
20260505164401 56 68 1.0 4.0 0.00 0.40 0.40 89 1011.3
20260505164301 56 68 0.0 4.0 0.00 0.40 0.40 89 1011.3
20260505164200 56 68 0.0 4.0 0.00 0.40 0.40 89 1011.2
20260505164101 56 60 1.0 4.0 0.00 0.40 0.40 90 1011.2
20260505163801 57 46 1.0 2.0 0.00 0.40 0.40 91 1011.2
20260505163601 56 46 0.0 2.0 0.00 0.40 0.40 91 1011.1
20260505163401 56 0 0.0 0.0 0.00 0.40 0.40 92 1011.2
20260505163301 56 0 0.0 0.0 0.00 0.40 0.40 92 1011.2
20260505163201 56 0 0.0 0.0 0.00 0.40 0.40 92 1011.2
20260505163101 56 0 0.0 0.0 0.00 0.40 0.40 92 1011.2
20260505163002 56 0 0.0 0.0 0.00 0.40 0.40 92 1011.3
20260505162901 56 0 0.0 0.0 0.00 0.40 0.40 92 1011.1
20260505162801 56 0 0.0 0.0 0.00 0.40 0.40 92 1011.3
20260505162701 56 0 0.0 0.0 0.00 0.40 0.40 92 1011.1
20260505162601 56 0 0.0 0.0 0.00 0.40 0.40 92 1011.0
20260505162400 56 0 0.0 0.0 0.00 0.40 0.40 92 1011.1
20260505162301 56 0 0.0 0.0 0.00 0.40 0.40 92 1011.2
20260505162201 56 0 0.0 0.0 0.00 0.40 0.40 92 1011.0
20260505162101 56 0 0.0 0.0 0.00 0.40 0.40 92 1011.2
20260505162000 56 0 0.0 0.0 0.00 0.40 0.40 92 1011.1
20260505161901 56 0 0.0 0.0 0.00 0.40 0.40 92 1011.2
20260505161701 55 0 0.0 0.0 0.00 0.40 0.40 92 1011.3
20260505161401 56 0 0.0 0.0 0.00 0.40 0.40 92 1011.3
20260505161301 56 0 0.0 0.0 0.00 0.40 0.40 92 1011.0
20260505161201 56 0 0.0 0.0 0.00 0.40 0.40 92 1011.1
20260505161101 56 68 0.0 2.0 0.00 0.40 0.40 92 1011.1
20260505161001 56 68 0.0 2.0 0.00 0.40 0.40 92 1011.1
20260505160901 56 68 0.0 2.0 0.00 0.40 0.40 92 1011.0
20260505160801 56 68 0.0 2.0 0.00 0.40 0.40 92 1011.2
20260505160701 56 68 0.0 2.0 0.00 0.40 0.40 92 1010.9
20260505160601 56 65 0.0 2.0 0.00 0.40 0.40 92 1011.1
20260505160501 55 64 0.0 2.0 0.00 0.40 0.40 92 1011.1
20260505160401 56 64 0.0 2.0 0.00 0.40 0.40 92 1011.1
20260505160301 55 64 0.0 2.0 0.00 0.40 0.40 92 1011.0
20260505160201 55 64 1.0 2.0 0.00 0.40 0.40 92 1011.1
20260505153201 55 0 0.0 0.0 0.00 0.40 0.40 96 1011.0
20260505153101 55 0 0.0 0.0 0.00 0.40 0.40 96 1011.2
20260505152901 54 0 0.0 0.0 0.00 0.40 0.40 95 1011.2
20260505152801 55 0 0.0 0.0 0.00 0.40 0.40 95 1010.9
20260505152701 55 0 0.0 0.0 0.00 0.40 0.40 95 1011.2
20260505152601 56 0 0.0 0.0 0.00 0.40 0.40 96 1011.2
20260505152501 56 0 0.0 0.0 0.00 0.40 0.40 96 1011.2
20260505152401 56 0 0.0 0.0 0.00 0.40 0.40 95 1011.2
20260505152304 56 0 0.0 0.0 0.00 0.40 0.40 95 1011.1
20260505152202 56 0 0.0 0.0 0.00 0.40 0.40 96 1011.3
20260505152101 56 0 0.0 0.0 0.00 0.40 0.40 96 1011.1
20260505152000 56 0 0.0 0.0 0.00 0.40 0.40 95 1011.2
20260505151801 56 0 0.0 0.0 0.00 0.40 0.40 96 1011.2
20260505151601 56 0 0.0 0.0 0.00 0.40 0.40 96 1011.1
20260505151504 55 0 0.0 0.0 0.00 0.40 0.40 95 1011.1
20260505151401 56 0 0.0 0.0 0.00 0.40 0.40 95 1011.2
20260505151301 56 0 0.0 0.0 0.00 0.40 0.40 96 1011.2
20260505151200 56 0 0.0 0.0 0.00 0.40 0.40 96 1011.1
20260505151101 56 0 0.0 0.0 0.00 0.40 0.40 96 1011.3
20260505151001 55 0 0.0 0.0 0.00 0.40 0.40 96 1011.2
20260505150901 56 0 0.0 0.0 0.00 0.40 0.40 96 1011.3
20260505150801 55 0 0.0 0.0 0.00 0.40 0.40 96 1011.2
20260505150700 56 0 0.0 0.0 0.00 0.40 0.40 96 1011.4
20260505150601 55 0 0.0 0.0 0.00 0.40 0.40 96 1011.1
20260505150501 55 0 0.0 0.0 0.00 0.40 0.40 96 1011.3
20260505150401 54 0 0.0 0.0 0.00 0.40 0.40 96 1011.4
20260505150301 54 0 0.0 0.0 0.00 0.40 0.40 96 1010.9
20260505150201 54 0 0.0 0.0 0.01 0.40 0.40 96 1011.3
20260505140601 54 0 0.0 0.0 0.04 0.40 0.40 96 1012.0
20260505140401 54 0 0.0 0.0 0.04 0.40 0.40 96 1012.0
20260505140301 54 0 0.0 0.0 0.04 0.39 0.39 96 1011.9
20260505140201 54 0 0.0 0.0 0.04 0.39 0.39 96 1012.0
20260505130301 54 158 0.0 2.0 0.17 0.35 0.35 97 1012.7
20260505130201 54 158 0.0 2.0 0.17 0.35 0.35 97 1012.7
20260505125001 55 90 0.0 2.0 0.20 0.34 0.34 97 1012.8
20260505124901 55 90 0.0 2.0 0.20 0.34 0.34 97 1012.7
20260505124801 55 100 0.0 4.0 0.20 0.34 0.34 97 1013.0
20260505124602 54 99 0.0 4.0 0.20 0.34 0.34 97 1013.0
20260505124502 55 99 0.0 4.0 0.20 0.34 0.34 97 1012.8
20260505124401 55 99 0.0 4.0 0.20 0.34 0.34 97 1012.8
20260505124202 55 101 0.0 4.0 0.19 0.33 0.33 97 1012.8
20260505124101 55 103 0.0 4.0 0.19 0.33 0.33 97 1013.1
20260505124001 55 103 0.0 4.0 0.20 0.33 0.33 97 1012.7
20260505123901 55 103 2.0 4.0 0.19 0.32 0.32 97 1012.8
20260505123801 55 97 2.0 4.0 0.19 0.32 0.32 97 1012.9
20260505123701 55 83 0.0 2.0 0.19 0.32 0.32 97 1012.8
20260505123501 55 0 0.0 0.0 0.19 0.32 0.32 97 1013.0
20260505123401 55 0 0.0 0.0 0.18 0.31 0.31 97 1012.9
20260505123301 55 0 0.0 0.0 0.18 0.31 0.31 97 1012.7
20260505123201 55 0 0.0 0.0 0.18 0.31 0.31 97 1012.6
20260505123003 55 0 0.0 0.0 0.19 0.31 0.31 97 1012.4
20260505122901 55 248 0.0 4.0 0.19 0.31 0.31 97 1012.6
20260505122801 55 248 0.0 4.0 0.20 0.31 0.31 97 1012.7
20260505122701 55 248 0.0 4.0 0.19 0.30 0.30 97 1012.7
20260505122601 55 239 0.0 4.0 0.24 0.30 0.30 96 1012.8
20260505122401 55 215 0.0 4.0 0.24 0.30 0.30 96 1012.5
20260505122301 55 216 0.0 4.0 0.24 0.30 0.30 96 1012.5
20260505122101 55 217 0.0 4.0 0.27 0.30 0.30 96 1012.4
20260505122001 55 217 0.0 4.0 0.27 0.30 0.30 96 1012.6
20260505121901 55 205 0.0 2.0 0.28 0.30 0.30 96 1012.5
20260505121802 55 207 0.0 2.0 0.28 0.30 0.30 96 1012.3
20260505121701 55 207 0.0 2.0 0.28 0.30 0.30 96 1012.4
20260505121601 55 208 0.0 2.0 0.28 0.28 0.28 96 1012.3
20260505121503 55 214 0.0 2.0 0.28 0.28 0.28 96 1012.3
20260505121401 55 225 0.0 2.0 0.28 0.28 0.28 96 1012.2
20260505121101 55 225 0.0 2.0 0.26 0.26 0.26 96 1011.9
20260505121002 55 225 0.0 2.0 0.26 0.26 0.26 96 1012.1
20260505120901 54 225 0.0 2.0 0.25 0.25 0.25 96 1012.0
20260505120801 55 0 0.0 0.0 0.21 0.21 0.21 95 1012.1
20260505120701 55 0 0.0 0.0 0.21 0.21 0.21 95 1011.9
20260505120402 55 337 0.0 2.0 0.21 0.21 0.21 95 1012.2
20260505120301 55 269 0.0 4.0 0.19 0.19 0.19 95 1012.1
20260505120201 55 265 0.0 4.0 0.19 0.19 0.19 95 1012.0
20260505120003 55 265 0.0 4.0 0.19 0.19 0.19 95 1012.2
20260505115901 55 265 0.0 4.0 0.19 0.19 0.19 95 1012.1
20260505115701 55 265 0.0 4.0 0.17 0.17 0.17 95 1012.0
20260505115602 55 257 0.0 4.0 0.17 0.17 0.17 95 1012.0
20260505115501 55 248 0.0 4.0 0.15 0.15 0.15 95 1012.1
20260505115401 55 248 1.0 4.0 0.15 0.15 0.15 94 1012.0
20260505115301 55 248 0.0 2.0 0.14 0.14 0.14 95 1012.1
20260505115201 55 0 0.0 0.0 0.14 0.14 0.14 94 1012.0
20260505115002 55 0 0.0 0.0 0.14 0.14 0.14 94 1012.0
20260505114901 55 0 0.0 0.0 0.14 0.14 0.14 94 1012.1
20260505114801 56 292 0.0 4.0 0.14 0.14 0.14 94 1011.8
20260505114701 56 292 0.0 4.0 0.14 0.14 0.14 94 1012.0
20260505114503 56 282 0.0 4.0 0.14 0.14 0.14 94 1011.9
20260505114301 56 257 0.0 7.0 0.14 0.14 0.14 94 1012.0
20260505114202 56 258 0.0 8.0 0.14 0.14 0.14 94 1012.1
20260505114101 56 248 0.0 9.0 0.14 0.14 0.14 93 1011.7
20260505114001 56 242 0.0 9.0 0.13 0.13 0.13 93 1011.8
20260505113701 56 235 0.0 9.0 0.13 0.13 0.13 93 1011.8
20260505113601 56 230 0.0 9.0 0.13 0.13 0.13 93 1011.8
20260505113502 56 224 1.0 9.0 0.13 0.13 0.13 93 1011.8
20260505113401 56 221 4.0 9.0 0.13 0.13 0.13 92 1011.9
20260505113301 56 215 4.0 9.0 0.13 0.13 0.13 92 1011.8
20260505113201 57 208 5.0 9.0 0.13 0.13 0.13 92 1012.1
20260505113003 58 190 5.0 9.0 0.12 0.12 0.12 91 1011.7
20260505112801 58 167 2.0 7.0 0.11 0.11 0.11 91 1011.8
20260505112701 58 151 4.0 7.0 0.08 0.08 0.08 89 1011.8
20260505112602 59 144 2.0 6.0 0.06 0.06 0.06 88 1012.0
20260505112401 59 135 3.0 4.0 0.06 0.06 0.06 85 1012.0
20260505112301 60 129 0.0 4.0 0.06 0.06 0.06 83 1011.8
20260505112202 61 135 1.0 4.0 0.02 0.02 0.02 80 1011.6
20260505112001 61 0 0.0 0.0 0.02 0.02 0.02 80 1011.8
20260505111902 61 0 0.0 0.0 0.01 0.01 0.01 79 1011.5
20260505111801 62 0 0.0 0.0 0.01 0.01 0.01 77 1011.4
20260505111701 63 22 0.0 2.0 0.00 0.00 0.00 74 1011.7
20260505111601 63 23 0.0 2.0 0.00 0.00 0.00 74 1011.7
20260505111503 63 346 0.0 2.0 0.00 0.00 0.00 71 1011.7
20260505111401 63 323 0.0 2.0 0.00 0.00 0.00 72 1011.6
20260505111302 64 317 0.0 2.0 0.00 0.00 0.00 75 1011.5
20260505111201 63 317 0.0 2.0 0.00 0.00 0.00 72 1011.5
20260505110901 64 286 0.0 2.0 0.00 0.00 0.00 71 1011.5
20260505110602 64 249 0.0 2.0 0.00 0.00 0.00 69 1011.6
20260505110401 64 223 0.0 2.0 0.00 0.00 0.00 70 1011.4
20260505110301 64 220 0.0 2.0 0.00 0.00 0.00 70 1011.6
20260505110201 64 220 0.0 2.0 0.00 0.00 0.00 69 1011.3
20260505102101 65 244 0.0 4.0 0.00 0.00 0.00 67 1011.7
20260505102001 65 232 2.0 4.0 0.00 0.00 0.00 66 1012.0
20260505101901 66 211 1.0 2.0 0.00 0.00 0.00 65 1011.7
20260505101802 66 212 1.0 2.0 0.00 0.00 0.00 65 1011.8
20260505101701 67 227 0.0 4.0 0.00 0.00 0.00 66 1011.8
20260505101301 66 239 0.0 4.0 0.00 0.00 0.00 66 1011.9
20260505101201 66 242 0.0 4.0 0.00 0.00 0.00 66 1011.7
20260505101102 66 243 0.0 4.0 0.00 0.00 0.00 65 1012.0
20260505100901 66 238 0.0 6.0 0.00 0.00 0.00 66 1011.9
20260505100801 66 234 0.0 6.0 0.00 0.00 0.00 66 1011.8
20260505100701 66 239 0.0 6.0 0.00 0.00 0.00 67 1011.6
20260505100602 66 249 0.0 6.0 0.00 0.00 0.00 67 1011.7
20260505100501 65 240 0.0 6.0 0.00 0.00 0.00 66 1011.6
20260505100401 65 235 0.0 6.0 0.00 0.00 0.00 66 1011.8
20260505100301 65 228 1.0 6.0 0.00 0.00 0.00 66 1011.9
20260505100201 65 228 0.0 6.0 0.00 0.00 0.00 67 1011.6
20260505100101 65 226 1.0 6.0 0.00 0.00 0.00 67 1011.6
20260505095901 65 228 2.0 6.0 0.00 0.00 0.00 67 1011.8
20260505095801 65 229 0.0 6.0 0.00 0.00 0.00 67 1011.9
20260505095701 65 222 2.0 6.0 0.00 0.00 0.00 67 1011.9
20260505095602 65 197 1.0 4.0 0.00 0.00 0.00 67 1011.9
20260505095401 66 134 2.0 4.0 0.00 0.00 0.00 64 1012.0
20260505095304 66 89 0.0 4.0 0.00 0.00 0.00 64 1011.9
20260505095201 67 89 0.0 4.0 0.00 0.00 0.00 64 1011.9
20260505095102 66 90 0.0 4.0 0.00 0.00 0.00 64 1011.9
20260505095001 66 92 0.0 4.0 0.00 0.00 0.00 64 1012.0
20260505094901 66 126 0.0 6.0 0.00 0.00 0.00 65 1011.8
20260505094801 66 149 0.0 6.0 0.00 0.00 0.00 65 1011.9
20260505094701 65 145 0.0 7.0 0.00 0.00 0.00 65 1012.2
20260505094601 65 149 0.0 7.0 0.00 0.00 0.00 65 1012.2
20260505094401 66 165 0.0 7.0 0.00 0.00 0.00 65 1011.9
20260505094301 65 173 0.0 7.0 0.00 0.00 0.00 65 1012.1
20260505094202 65 174 0.0 7.0 0.00 0.00 0.00 65 1012.1
20260505094001 65 172 1.0 7.0 0.00 0.00 0.00 67 1011.9
20260505093901 65 167 4.0 7.0 0.00 0.00 0.00 67 1012.1
20260505093801 65 163 4.0 7.0 0.00 0.00 0.00 67 1011.9
20260505093701 65 176 4.0 4.0 0.00 0.00 0.00 65 1012.2
20260505093602 66 206 2.0 4.0 0.00 0.00 0.00 64 1012.1
20260505093502 66 238 1.0 4.0 0.00 0.00 0.00 64 1012.0
20260505093301 65 262 0.0 4.0 0.00 0.00 0.00 66 1012.2
20260505093201 65 263 0.0 4.0 0.00 0.00 0.00 66 1012.0
20260505093101 65 263 0.0 4.0 0.00 0.00 0.00 66 1012.2
20260505093003 66 263 0.0 4.0 0.00 0.00 0.00 64 1012.1
20260505092901 66 263 0.0 4.0 0.00 0.00 0.00 64 1012.1
20260505092801 66 264 0.0 4.0 0.00 0.00 0.00 64 1012.4
20260505092702 66 256 2.0 4.0 0.00 0.00 0.00 65 1012.0
20260505092602 66 252 2.0 4.0 0.00 0.00 0.00 65 1012.3
20260505092501 67 248 3.0 4.0 0.00 0.00 0.00 63 1012.3
20260505092401 67 229 3.0 4.0 0.00 0.00 0.00 63 1012.2
20260505092304 67 222 2.0 4.0 0.00 0.00 0.00 63 1012.1
20260505092202 67 213 0.0 4.0 0.00 0.00 0.00 63 1011.9
20260505092101 67 210 0.0 4.0 0.00 0.00 0.00 63 1012.1
20260505091901 67 269 0.0 4.0 0.00 0.00 0.00 65 1012.4
20260505091802 66 270 1.0 4.0 0.00 0.00 0.00 65 1012.3
20260505091702 66 284 2.0 4.0 0.00 0.00 0.00 64 1012.3
20260505091601 67 296 0.0 4.0 0.00 0.00 0.00 64 1012.3
20260505091503 66 299 2.0 4.0 0.00 0.00 0.00 65 1012.2
20260505091401 65 305 0.0 4.0 0.00 0.00 0.00 66 1012.3
20260505091101 65 296 1.0 4.0 0.00 0.00 0.00 66 1012.3
20260505091002 65 289 1.0 4.0 0.00 0.00 0.00 66 1012.4
20260505090801 65 252 1.0 4.0 0.00 0.00 0.00 67 1012.2
20260505090701 65 249 0.0 4.0 0.00 0.00 0.00 68 1012.1
20260505090601 65 252 0.0 4.0 0.00 0.00 0.00 68 1012.3
20260505090501 64 244 1.0 4.0 0.00 0.00 0.00 66 1012.2
20260505090402 65 231 1.0 4.0 0.00 0.00 0.00 66 1012.4
20260505090302 65 225 0.0 4.0 0.00 0.00 0.00 67 1012.3
20260505090201 65 225 0.0 4.0 0.00 0.00 0.00 64 1012.3
20260505090101 66 222 0.0 4.0 0.00 0.00 0.00 66 1012.6
20260505090003 66 222 0.0 4.0 0.00 0.00 0.00 67 1012.4
20260505085801 64 231 0.0 6.0 0.00 0.00 0.00 67 1012.3
20260505085701 64 230 0.0 6.0 0.00 0.00 0.00 68 1012.5
20260505085602 64 228 0.0 6.0 0.00 0.00 0.00 69 1012.6
20260505085502 64 227 1.0 6.0 0.00 0.00 0.00 68 1012.4
20260505085401 64 227 0.0 6.0 0.00 0.00 0.00 70 1012.5
20260505085301 63 223 1.0 6.0 0.00 0.00 0.00 70 1012.6
20260505085202 63 220 1.0 6.0 0.00 0.00 0.00 70 1012.4
20260505085001 63 222 2.0 6.0 0.00 0.00 0.00 70 1012.2
20260505084901 63 217 2.0 4.0 0.00 0.00 0.00 69 1012.5
20260505084801 63 219 2.0 4.0 0.00 0.00 0.00 69 1012.5
20260505084702 63 219 2.0 4.0 0.00 0.00 0.00 69 1012.4
20260505084302 63 229 1.0 4.0 0.00 0.00 0.00 70 1012.4
20260505084202 63 232 2.0 4.0 0.00 0.00 0.00 72 1012.4
20260505084101 63 234 2.0 4.0 0.00 0.00 0.00 72 1012.6
20260505084001 62 236 2.0 4.0 0.00 0.00 0.00 70 1012.7
20260505083901 62 238 2.0 4.0 0.00 0.00 0.00 70 1012.6
20260505083702 63 239 2.0 4.0 0.00 0.00 0.00 70 1012.5
20260505083602 64 243 0.0 4.0 0.00 0.00 0.00 70 1012.7
20260505083502 63 238 0.0 4.0 0.00 0.00 0.00 70 1012.6
20260505083401 63 235 1.0 4.0 0.00 0.00 0.00 71 1012.6
20260505083301 63 235 1.0 4.0 0.00 0.00 0.00 71 1012.5
20260505083201 63 231 2.0 4.0 0.00 0.00 0.00 70 1012.6
20260505083102 63 208 2.0 4.0 0.00 0.00 0.00 70 1012.5
20260505083002 63 187 0.0 6.0 0.00 0.00 0.00 70 1012.6
20260505082901 62 195 0.0 6.0 0.00 0.00 0.00 73 1012.5
20260505082802 62 202 0.0 6.0 0.00 0.00 0.00 73 1012.7
20260505082702 62 202 0.0 6.0 0.00 0.00 0.00 72 1012.5
20260505082602 61 202 1.0 6.0 0.00 0.00 0.00 73 1012.6
20260505082502 61 202 1.0 6.0 0.00 0.00 0.00 72 1012.7
20260505082401 61 198 1.0 6.0 0.00 0.00 0.00 73 1012.4
20260505082304 61 192 1.0 6.0 0.00 0.00 0.00 73 1012.6
20260505082202 61 191 2.0 6.0 0.00 0.00 0.00 73 1012.7
20260505082101 61 201 2.0 6.0 0.00 0.00 0.00 73 1012.6
20260505081901 62 217 2.0 4.0 0.00 0.00 0.00 72 1012.6
20260505081701 62 228 0.0 4.0 0.00 0.00 0.00 73 1012.7
20260505081602 62 229 0.0 4.0 0.00 0.00 0.00 72 1012.7
20260505081503 62 230 0.0 4.0 0.00 0.00 0.00 73 1012.7
20260505081402 62 234 0.0 4.0 0.00 0.00 0.00 72 1012.8
20260505081302 62 238 0.0 4.0 0.00 0.00 0.00 72 1012.7
20260505081201 62 241 0.0 4.0 0.00 0.00 0.00 72 1012.8
20260505081101 62 249 0.0 4.0 0.00 0.00 0.00 72 1012.7
20260505081001 62 250 1.0 4.0 0.00 0.00 0.00 73 1012.7
20260505080902 62 249 1.0 4.0 0.00 0.00 0.00 73 1012.8
20260505080702 62 240 0.0 4.0 0.00 0.00 0.00 72 1012.9
20260505080601 62 238 0.0 4.0 0.00 0.00 0.00 72 1012.9
20260505080501 62 238 0.0 4.0 0.00 0.00 0.00 71 1012.8
20260505080401 62 238 0.0 4.0 0.00 0.00 0.00 71 1013.0
20260505080302 62 238 0.0 4.0 0.00 0.00 0.00 72 1012.9
20260505080202 62 240 0.0 4.0 0.00 0.00 0.00 72 1012.9
20260505075902 62 236 2.0 4.0 0.00 0.00 0.00 71 1013.0
20260505075801 62 225 0.0 2.0 0.00 0.00 0.00 72 1012.8
20260505075701 62 225 0.0 2.0 0.00 0.00 0.00 72 1012.7
20260505075602 62 225 0.0 2.0 0.00 0.00 0.00 72 1012.9
20260505075501 62 225 0.0 2.0 0.00 0.00 0.00 72 1012.9
20260505075303 62 225 0.0 2.0 0.00 0.00 0.00 74 1012.8
20260505075201 61 0 0.0 0.0 0.00 0.00 0.00 75 1012.8
20260505075102 61 0 0.0 0.0 0.00 0.00 0.00 75 1013.0
20260505075002 61 0 0.0 0.0 0.00 0.00 0.00 75 1013.1
20260505074801 60 0 0.0 0.0 0.00 0.00 0.00 74 1013.0
20260505074601 61 0 0.0 0.0 0.00 0.00 0.00 75 1013.0
20260505074503 61 0 0.0 0.0 0.00 0.00 0.00 75 1012.9
20260505074401 61 0 0.0 0.0 0.00 0.00 0.00 74 1013.0
20260505074301 61 0 0.0 0.0 0.00 0.00 0.00 75 1012.9
20260505074201 60 0 0.0 0.0 0.00 0.00 0.00 74 1012.9
20260505074001 60 225 0.0 2.0 0.00 0.00 0.00 74 1013.1
20260505073902 60 225 0.0 2.0 0.00 0.00 0.00 74 1013.0
20260505073802 60 225 0.0 2.0 0.00 0.00 0.00 74 1012.9
20260505073601 60 225 0.0 2.0 0.00 0.00 0.00 74 1012.9
20260505073501 60 225 0.0 2.0 0.00 0.00 0.00 74 1013.0
20260505073402 60 225 0.0 2.0 0.00 0.00 0.00 74 1012.9
20260505073302 60 225 0.0 2.0 0.00 0.00 0.00 74 1013.1
20260505073201 60 225 0.0 2.0 0.00 0.00 0.00 74 1013.1
20260505073101 61 225 0.0 2.0 0.00 0.00 0.00 74 1013.1
20260505073003 60 0 0.0 0.0 0.00 0.00 0.00 74 1013.4
20260505072901 60 0 0.0 0.0 0.00 0.00 0.00 74 1013.0
20260505072801 60 248 0.0 2.0 0.00 0.00 0.00 75 1013.3
20260505072701 60 248 0.0 2.0 0.00 0.00 0.00 75 1013.1
20260505072602 60 248 0.0 2.0 0.00 0.00 0.00 75 1013.2
20260505072502 60 248 0.0 2.0 0.00 0.00 0.00 75 1013.2
20260505072401 60 248 0.0 2.0 0.00 0.00 0.00 75 1013.3
20260505072301 60 248 0.0 2.0 0.00 0.00 0.00 75 1013.0
20260505072101 60 248 0.0 2.0 0.00 0.00 0.00 75 1013.1
20260505072002 60 248 0.0 2.0 0.00 0.00 0.00 74 1013.1
20260505071902 60 248 0.0 2.0 0.00 0.00 0.00 74 1013.1
20260505071801 60 248 0.0 2.0 0.00 0.00 0.00 74 1013.2
20260505071601 60 248 0.0 2.0 0.00 0.00 0.00 74 1013.0
20260505071503 60 248 0.0 2.0 0.00 0.00 0.00 75 1013.1
20260505071401 60 248 0.0 2.0 0.00 0.00 0.00 75 1013.0
20260505071302 60 248 0.0 2.0 0.00 0.00 0.00 75 1013.4
20260505071102 60 248 0.0 2.0 0.00 0.00 0.00 75 1013.2
20260505070901 60 0 0.0 0.0 0.00 0.00 0.00 75 1013.0
20260505070801 60 0 0.0 0.0 0.00 0.00 0.00 76 1013.1
20260505070702 60 248 0.0 2.0 0.00 0.00 0.00 75 1013.3
20260505070602 60 248 0.0 2.0 0.00 0.00 0.00 75 1013.2
20260505070501 60 248 0.0 2.0 0.00 0.00 0.00 76 1013.2
20260505070401 60 248 0.0 2.0 0.00 0.00 0.00 76 1013.3
20260505070301 60 248 0.0 2.0 0.00 0.00 0.00 76 1013.1
20260505070201 60 248 0.0 2.0 0.00 0.00 0.00 76 1012.9
20260505065901 60 228 0.0 2.0 0.00 0.00 0.00 76 1013.1
20260505065702 60 217 0.0 2.0 0.00 0.00 0.00 76 1013.2
20260505065602 59 212 1.0 2.0 0.00 0.00 0.00 76 1013.2
20260505065502 59 208 1.0 4.0 0.00 0.00 0.00 76 1013.2
20260505065401 59 201 1.0 4.0 0.00 0.00 0.00 76 1013.2
20260505065303 59 191 0.0 4.0 0.00 0.00 0.00 76 1012.9
20260505065202 59 191 0.0 4.0 0.00 0.00 0.00 76 1013.3
20260505065002 59 205 0.0 4.0 0.00 0.00 0.00 76 1013.2
20260505064901 59 206 0.0 4.0 0.00 0.00 0.00 76 1013.2
20260505064702 60 225 0.0 4.0 0.00 0.00 0.00 75 1012.9
20260505064602 60 225 2.0 4.0 0.00 0.00 0.00 75 1013.2
20260505064503 60 0 0.0 0.0 0.00 0.00 0.00 75 1013.0
20260505064402 60 0 0.0 0.0 0.00 0.00 0.00 75 1013.1
20260505064301 60 0 0.0 0.0 0.00 0.00 0.00 75 1013.1
20260505064202 59 0 0.0 0.0 0.00 0.00 0.00 75 1013.3
20260505064102 59 0 0.0 0.0 0.00 0.00 0.00 75 1013.2
20260505064002 59 0 0.0 0.0 0.00 0.00 0.00 75 1013.1
20260505063903 59 0 0.0 0.0 0.00 0.00 0.00 75 1013.1
20260505063801 59 0 0.0 0.0 0.00 0.00 0.00 75 1013.1
20260505063602 59 0 0.0 0.0 0.00 0.00 0.00 76 1013.2
20260505063502 59 0 0.0 0.0 0.00 0.00 0.00 76 1013.1
20260505063402 59 0 0.0 0.0 0.00 0.00 0.00 75 1013.2
20260505063301 59 0 0.0 0.0 0.00 0.00 0.00 75 1013.2
20260505063201 60 0 0.0 0.0 0.00 0.00 0.00 76 1013.1
20260505063102 59 0 0.0 0.0 0.00 0.00 0.00 76 1013.2
20260505063003 59 0 0.0 0.0 0.00 0.00 0.00 76 1013.1
20260505062902 59 0 0.0 0.0 0.00 0.00 0.00 77 1013.2
20260505062802 59 0 0.0 0.0 0.00 0.00 0.00 77 1013.3
20260505062401 58 0 0.0 0.0 0.00 0.00 0.00 77 1013.3
20260505062201 58 0 0.0 0.0 0.00 0.00 0.00 79 1013.3
20260505062102 58 0 0.0 0.0 0.00 0.00 0.00 79 1013.6
20260505062002 58 0 0.0 0.0 0.00 0.00 0.00 80 1013.4
20260505061902 57 0 0.0 0.0 0.00 0.00 0.00 80 1013.5
20260505061801 57 0 0.0 0.0 0.00 0.00 0.00 80 1013.3
20260505061701 57 0 0.0 0.0 0.00 0.00 0.00 80 1013.2
20260505061503 57 0 0.0 0.0 0.00 0.00 0.00 81 1013.4
20260505061301 57 0 0.0 0.0 0.00 0.00 0.00 80 1013.5
20260505061201 57 0 0.0 0.0 0.00 0.00 0.00 81 1013.4
20260505061101 57 0 0.0 0.0 0.00 0.00 0.00 80 1013.2
20260505061002 57 0 0.0 0.0 0.00 0.00 0.00 80 1013.4
20260505060902 57 0 0.0 0.0 0.00 0.00 0.00 80 1013.5
20260505060802 57 0 0.0 0.0 0.00 0.00 0.00 80 1013.3
20260505060701 57 0 0.0 0.0 0.00 0.00 0.00 81 1013.3
20260505060601 57 0 0.0 0.0 0.00 0.00 0.00 81 1013.3
20260505060402 57 0 0.0 0.0 0.00 0.00 0.00 81 1013.1
20260505060202 57 0 0.0 0.0 0.00 0.00 0.00 81 1013.4
20260505060003 57 0 0.0 0.0 0.00 0.00 0.00 81 1013.4
20260505055901 57 0 0.0 0.0 0.00 0.00 0.00 81 1013.5
20260505055801 57 0 0.0 0.0 0.00 0.00 0.00 81 1013.5
20260505055702 57 0 0.0 0.0 0.00 0.00 0.00 82 1013.6
20260505055602 57 0 0.0 0.0 0.00 0.00 0.00 82 1013.4
20260505055502 57 0 0.0 0.0 0.00 0.00 0.00 83 1013.5
20260505055401 57 0 0.0 0.0 0.00 0.00 0.00 83 1013.4
20260505055202 56 0 0.0 0.0 0.00 0.00 0.00 82 1013.5
20260505055102 57 0 0.0 0.0 0.00 0.00 0.00 83 1013.4
20260505055002 57 0 0.0 0.0 0.00 0.00 0.00 83 1013.5
20260505054901 56 0 0.0 0.0 0.00 0.00 0.00 83 1013.6
20260505054801 56 0 0.0 0.0 0.00 0.00 0.00 83 1013.4
20260505054701 56 0 0.0 0.0 0.00 0.00 0.00 84 1013.5
20260505054602 56 0 0.0 0.0 0.00 0.00 0.00 84 1013.4
20260505054301 56 0 0.0 0.0 0.00 0.00 0.00 85 1013.4
20260505054101 56 0 0.0 0.0 0.00 0.00 0.00 85 1013.3
20260505054002 55 0 0.0 0.0 0.00 0.00 0.00 85 1013.4
20260505053802 55 0 0.0 0.0 0.00 0.00 0.00 85 1013.6
20260505053702 55 0 0.0 0.0 0.00 0.00 0.00 85 1013.4
20260505053501 55 0 0.0 0.0 0.00 0.00 0.00 85 1013.3
20260505053401 55 0 0.0 0.0 0.00 0.00 0.00 85 1013.5
20260505053302 55 0 0.0 0.0 0.00 0.00 0.00 85 1013.5
20260505053202 55 0 0.0 0.0 0.00 0.00 0.00 85 1013.5
20260505053101 55 0 0.0 0.0 0.00 0.00 0.00 85 1013.4
20260505053004 55 0 0.0 0.0 0.00 0.00 0.00 85 1013.5
20260505052902 55 0 0.0 0.0 0.00 0.00 0.00 84 1013.5
20260505052802 55 0 0.0 0.0 0.00 0.00 0.00 84 1013.6
20260505052601 55 0 0.0 0.0 0.00 0.00 0.00 84 1013.5
20260505052502 55 0 0.0 0.0 0.00 0.00 0.00 84 1013.6
20260505052402 55 0 0.0 0.0 0.00 0.00 0.00 84 1013.3
20260505052201 55 0 0.0 0.0 0.00 0.00 0.00 85 1013.4
20260505052102 55 0 0.0 0.0 0.00 0.00 0.00 85 1013.4
20260505052002 55 0 0.0 0.0 0.00 0.00 0.00 85 1013.4
20260505051902 55 0 0.0 0.0 0.00 0.00 0.00 85 1013.6
20260505051802 55 0 0.0 0.0 0.00 0.00 0.00 85 1013.6
20260505051701 55 0 0.0 0.0 0.00 0.00 0.00 85 1013.4
20260505051503 55 0 0.0 0.0 0.00 0.00 0.00 85 1013.6
20260505051301 55 0 0.0 0.0 0.00 0.00 0.00 86 1013.4
20260505051201 54 0 0.0 0.0 0.00 0.00 0.00 86 1013.4
20260505051102 54 0 0.0 0.0 0.00 0.00 0.00 86 1013.8
20260505051002 54 0 0.0 0.0 0.00 0.00 0.00 86 1013.4
20260505050902 54 0 0.0 0.0 0.00 0.00 0.00 86 1013.8
20260505050801 54 0 0.0 0.0 0.00 0.00 0.00 86 1013.7
20260505050701 54 0 0.0 0.0 0.00 0.00 0.00 86 1013.6
20260505050602 54 0 0.0 0.0 0.00 0.00 0.00 86 1013.6
20260505050502 54 0 0.0 0.0 0.00 0.00 0.00 86 1013.7
20260505050402 54 0 0.0 0.0 0.00 0.00 0.00 86 1013.5
20260505050201 54 0 0.0 0.0 0.00 0.00 0.00 87 1013.6
20260505041702 53 0 0.0 0.0 0.00 0.00 0.00 87 1013.6
20260505041602 53 0 0.0 0.0 0.00 0.00 0.00 87 1013.6
20260505041402 53 0 0.0 0.0 0.00 0.00 0.00 87 1013.5
20260505041302 53 0 0.0 0.0 0.00 0.00 0.00 87 1013.6
20260505041102 53 0 0.0 0.0 0.00 0.00 0.00 87 1013.7
20260505041002 53 0 0.0 0.0 0.00 0.00 0.00 87 1013.3
20260505040701 53 0 0.0 0.0 0.00 0.00 0.00 87 1013.8
20260505040602 53 0 0.0 0.0 0.00 0.00 0.00 87 1013.7
20260505040502 53 0 0.0 0.0 0.00 0.00 0.00 87 1013.6
20260505040402 53 0 0.0 0.0 0.00 0.00 0.00 87 1013.7
20260505040301 53 0 0.0 0.0 0.00 0.00 0.00 87 1013.5
20260505040202 53 0 0.0 0.0 0.00 0.00 0.00 87 1013.8
20260505040003 53 0 0.0 0.0 0.00 0.00 0.00 87 1013.7
20260505035901 53 0 0.0 0.0 0.00 0.00 0.00 86 1013.5
20260505035402 53 0 0.0 0.0 0.00 0.00 0.00 86 1013.8
20260505035304 53 0 0.0 0.0 0.00 0.00 0.00 86 1013.6
20260505035201 53 0 0.0 0.0 0.00 0.00 0.00 86 1013.8
20260505035001 53 0 0.0 0.0 0.00 0.00 0.00 86 1013.7
20260505034902 53 0 0.0 0.0 0.00 0.00 0.00 86 1013.7
20260505034802 53 0 0.0 0.0 0.00 0.00 0.00 86 1013.8
20260505034702 53 0 0.0 0.0 0.00 0.00 0.00 86 1013.7
20260505034602 53 0 0.0 0.0 0.00 0.00 0.00 86 1013.7
20260505034503 53 0 0.0 0.0 0.00 0.00 0.00 86 1013.8
20260505034402 54 0 0.0 0.0 0.00 0.00 0.00 86 1013.9
20260505034202 54 0 0.0 0.0 0.00 0.00 0.00 86 1013.8
20260505034001 54 0 0.0 0.0 0.00 0.00 0.00 86 1013.8
20260505033902 54 0 0.0 0.0 0.00 0.00 0.00 86 1013.5
20260505033802 54 0 0.0 0.0 0.00 0.00 0.00 86 1013.8
20260505033702 54 0 0.0 0.0 0.00 0.00 0.00 86 1013.7
20260505033601 54 0 0.0 0.0 0.00 0.00 0.00 86 1013.8
20260505033402 54 0 0.0 0.0 0.00 0.00 0.00 85 1013.5
20260505033302 54 0 0.0 0.0 0.00 0.00 0.00 85 1013.7
20260505033202 54 0 0.0 0.0 0.00 0.00 0.00 85 1013.7
20260505033102 54 0 0.0 0.0 0.00 0.00 0.00 85 1013.8
20260505032902 54 0 0.0 0.0 0.00 0.00 0.00 85 1013.8
20260505032802 54 0 0.0 0.0 0.00 0.00 0.00 85 1013.6
20260505032702 54 0 0.0 0.0 0.00 0.00 0.00 85 1013.9
20260505032601 54 0 0.0 0.0 0.00 0.00 0.00 85 1013.6
20260505032301 54 0 0.0 0.0 0.00 0.00 0.00 84 1013.7
20260505032202 54 0 0.0 0.0 0.00 0.00 0.00 84 1013.8
20260505032102 54 0 0.0 0.0 0.00 0.00 0.00 84 1013.7
20260505032002 54 0 0.0 0.0 0.00 0.00 0.00 84 1013.8
20260505031902 54 0 0.0 0.0 0.00 0.00 0.00 85 1013.7
20260505031801 54 0 0.0 0.0 0.00 0.00 0.00 85 1013.8
20260505031702 54 0 0.0 0.0 0.00 0.00 0.00 85 1013.7
20260505031503 54 0 0.0 0.0 0.00 0.00 0.00 85 1013.7
20260505031401 54 0 0.0 0.0 0.00 0.00 0.00 85 1013.9
20260505031302 54 0 0.0 0.0 0.00 0.00 0.00 85 1013.8
20260505031202 54 0 0.0 0.0 0.00 0.00 0.00 85 1013.8
20260505031102 54 0 0.0 0.0 0.00 0.00 0.00 85 1014.2
20260505031002 54 0 0.0 0.0 0.00 0.00 0.00 85 1013.8
20260505030901 54 0 0.0 0.0 0.00 0.00 0.00 84 1014.0
20260505030801 54 0 0.0 0.0 0.00 0.00 0.00 84 1014.2
20260505030702 54 0 0.0 0.0 0.00 0.00 0.00 84 1013.9
20260505030602 54 0 0.0 0.0 0.00 0.00 0.00 84 1014.1
20260505030402 54 0 0.0 0.0 0.00 0.00 0.00 84 1014.1
20260505030302 54 0 0.0 0.0 0.00 0.00 0.00 84 1013.9
20260505030201 54 0 0.0 0.0 0.00 0.00 0.00 84 1013.9
20260505025901 54 0 0.0 0.0 0.00 0.00 0.00 84 1014.3
20260505025801 54 0 0.0 0.0 0.00 0.00 0.00 84 1014.2
20260505025702 54 0 0.0 0.0 0.00 0.00 0.00 84 1014.0
20260505025502 54 0 0.0 0.0 0.00 0.00 0.00 85 1014.0
20260505025402 54 0 0.0 0.0 0.00 0.00 0.00 84 1014.1
20260505025301 54 0 0.0 0.0 0.00 0.00 0.00 84 1014.2
20260505025201 54 0 0.0 0.0 0.00 0.00 0.00 84 1014.3
20260505024902 54 0 0.0 0.0 0.00 0.00 0.00 84 1014.1
20260505024802 54 0 0.0 0.0 0.00 0.00 0.00 85 1014.3
20260505024702 54 0 0.0 0.0 0.00 0.00 0.00 85 1014.1
20260505024601 54 0 0.0 0.0 0.00 0.00 0.00 85 1014.4
20260505024503 54 0 0.0 0.0 0.00 0.00 0.00 85 1014.2
20260505024302 54 0 0.0 0.0 0.00 0.00 0.00 85 1014.3
20260505024101 54 0 0.0 0.0 0.00 0.00 0.00 85 1014.3
20260505024002 54 0 0.0 0.0 0.00 0.00 0.00 84 1014.2
20260505023902 54 0 0.0 0.0 0.00 0.00 0.00 84 1014.3
20260505023802 54 0 0.0 0.0 0.00 0.00 0.00 84 1014.3
20260505023702 54 0 0.0 0.0 0.00 0.00 0.00 84 1014.3
20260505023601 54 0 0.0 0.0 0.00 0.00 0.00 84 1014.2
20260505023502 54 0 0.0 0.0 0.00 0.00 0.00 84 1014.3
20260505023302 54 0 0.0 0.0 0.00 0.00 0.00 84 1014.3
20260505023202 54 0 0.0 0.0 0.00 0.00 0.00 84 1014.4
20260505023101 54 0 0.0 0.0 0.00 0.00 0.00 84 1014.3
20260505023003 54 0 0.0 0.0 0.00 0.00 0.00 84 1014.3
20260505022901 54 0 0.0 0.0 0.00 0.00 0.00 84 1014.3
20260505022801 54 0 0.0 0.0 0.00 0.00 0.00 84 1014.1
20260505022701 54 0 0.0 0.0 0.00 0.00 0.00 84 1014.3
20260505022602 54 0 0.0 0.0 0.00 0.00 0.00 84 1014.3
20260505022502 54 0 0.0 0.0 0.00 0.00 0.00 84 1014.2
20260505022402 54 0 0.0 0.0 0.00 0.00 0.00 84 1014.4
20260505022301 54 0 0.0 0.0 0.00 0.00 0.00 84 1014.7
20260505022202 54 0 0.0 0.0 0.00 0.00 0.00 84 1014.4
20260505022102 54 0 0.0 0.0 0.00 0.00 0.00 84 1014.4
20260505021902 54 0 0.0 0.0 0.00 0.00 0.00 84 1014.4
20260505021801 54 0 0.0 0.0 0.00 0.00 0.00 84 1014.5
20260505021702 54 0 0.0 0.0 0.00 0.00 0.00 84 1014.5
20260505021602 54 0 0.0 0.0 0.00 0.00 0.00 84 1014.3
20260505021503 54 0 0.0 0.0 0.00 0.00 0.00 84 1014.6
20260505021401 54 0 0.0 0.0 0.00 0.00 0.00 84 1014.5
20260505021302 54 0 0.0 0.0 0.00 0.00 0.00 84 1014.7
20260505021202 54 0 0.0 0.0 0.00 0.00 0.00 84 1014.5
20260505021102 54 0 0.0 0.0 0.00 0.00 0.00 84 1014.5
20260505021002 54 0 0.0 0.0 0.00 0.00 0.00 83 1014.5
20260505020801 54 0 0.0 0.0 0.00 0.00 0.00 83 1014.6
20260505020702 55 0 0.0 0.0 0.00 0.00 0.00 83 1014.4
20260505020602 55 0 0.0 0.0 0.00 0.00 0.00 83 1014.5
20260505020502 55 0 0.0 0.0 0.00 0.00 0.00 83 1014.4
20260505020402 55 0 0.0 0.0 0.00 0.00 0.00 83 1014.4
20260505020301 55 0 0.0 0.0 0.00 0.00 0.00 83 1014.5
20260505020201 55 0 0.0 0.0 0.00 0.00 0.00 82 1014.6
20260505020003 55 0 0.0 0.0 0.00 0.00 0.00 82 1014.4
20260505015902 55 0 0.0 0.0 0.00 0.00 0.00 82 1014.3
20260505015802 55 0 0.0 0.0 0.00 0.00 0.00 82 1014.6
20260505015702 55 0 0.0 0.0 0.00 0.00 0.00 82 1014.6
20260505015602 55 0 0.0 0.0 0.00 0.00 0.00 82 1014.6
20260505015501 55 0 0.0 0.0 0.00 0.00 0.00 82 1014.6
20260505015402 55 0 0.0 0.0 0.00 0.00 0.00 82 1014.7
20260505015303 55 0 0.0 0.0 0.00 0.00 0.00 82 1014.7
20260505015202 55 0 0.0 0.0 0.00 0.00 0.00 82 1014.8
20260505015102 55 0 0.0 0.0 0.00 0.00 0.00 82 1014.5
20260505015002 55 0 0.0 0.0 0.00 0.00 0.00 82 1014.7
20260505014902 55 0 0.0 0.0 0.00 0.00 0.00 82 1014.7
20260505014702 55 0 0.0 0.0 0.00 0.00 0.00 82 1014.9
20260505014602 55 0 0.0 0.0 0.00 0.00 0.00 82 1014.8
20260505014504 55 0 0.0 0.0 0.00 0.00 0.00 82 1014.6
20260505014402 55 0 0.0 0.0 0.00 0.00 0.00 82 1014.7
20260505014302 55 0 0.0 0.0 0.00 0.00 0.00 82 1014.7
20260505014101 55 0 0.0 0.0 0.00 0.00 0.00 82 1014.8
20260505014001 55 0 0.0 0.0 0.00 0.00 0.00 82 1014.8
20260505013802 55 0 0.0 0.0 0.00 0.00 0.00 81 1014.8
20260505013702 55 0 0.0 0.0 0.00 0.00 0.00 81 1014.8
20260505013602 55 0 0.0 0.0 0.00 0.00 0.00 81 1014.9
20260505013502 55 0 0.0 0.0 0.00 0.00 0.00 81 1014.9
20260505013401 56 0 0.0 0.0 0.00 0.00 0.00 80 1014.9
20260505013302 56 0 0.0 0.0 0.00 0.00 0.00 80 1014.8
20260505013004 56 0 0.0 0.0 0.00 0.00 0.00 80 1015.0
20260505012902 56 0 0.0 0.0 0.00 0.00 0.00 80 1015.0
20260505012802 56 0 0.0 0.0 0.00 0.00 0.00 80 1015.0
20260505012702 56 0 0.0 0.0 0.00 0.00 0.00 80 1015.0
20260505012602 56 0 0.0 0.0 0.00 0.00 0.00 80 1015.1
20260505012501 56 0 0.0 0.0 0.00 0.00 0.00 80 1014.9
20260505012402 56 0 0.0 0.0 0.00 0.00 0.00 80 1014.9
20260505012304 56 0 0.0 0.0 0.00 0.00 0.00 80 1015.1
20260505012202 56 0 0.0 0.0 0.00 0.00 0.00 80 1015.1
20260505012102 56 0 0.0 0.0 0.00 0.00 0.00 80 1015.2
20260505012001 56 0 0.0 0.0 0.00 0.00 0.00 80 1015.3
20260505011901 56 0 0.0 0.0 0.00 0.00 0.00 80 1015.1
20260505011802 56 0 0.0 0.0 0.00 0.00 0.00 80 1015.3
20260505011702 56 0 0.0 0.0 0.00 0.00 0.00 80 1015.3
20260505011503 56 0 0.0 0.0 0.00 0.00 0.00 80 1015.4
20260505011402 56 0 0.0 0.0 0.00 0.00 0.00 80 1015.3
20260505011302 56 0 0.0 0.0 0.00 0.00 0.00 80 1015.3
20260505011202 56 0 0.0 0.0 0.00 0.00 0.00 80 1015.3
20260505011102 56 0 0.0 0.0 0.00 0.00 0.00 80 1015.3
20260505011001 56 0 0.0 0.0 0.00 0.00 0.00 80 1015.4
20260505010902 56 0 0.0 0.0 0.00 0.00 0.00 80 1015.4
20260505010802 56 0 0.0 0.0 0.00 0.00 0.00 80 1015.3
20260505010702 56 0 0.0 0.0 0.00 0.00 0.00 80 1015.3
20260505010602 56 0 0.0 0.0 0.00 0.00 0.00 80 1015.4
20260505010501 56 0 0.0 0.0 0.00 0.00 0.00 80 1015.4
20260505010402 56 0 0.0 0.0 0.00 0.00 0.00 80 1015.5
20260505010202 56 0 0.0 0.0 0.00 0.00 0.00 80 1015.2
20260505010004 56 0 0.0 0.0 0.00 0.00 0.00 80 1015.4
20260505005902 56 0 0.0 0.0 0.00 0.00 0.00 80 1015.6
20260505005802 56 0 0.0 0.0 0.00 0.00 0.00 80 1015.5
20260505005702 56 0 0.0 0.0 0.00 0.00 0.00 80 1015.7
20260505005602 56 0 0.0 0.0 0.00 0.00 0.00 80 1015.4
20260505005502 56 0 0.0 0.0 0.00 0.00 0.00 80 1015.4
20260505005402 56 0 0.0 0.0 0.00 0.00 0.00 80 1015.4
20260505005303 56 0 0.0 0.0 0.00 0.00 0.00 80 1015.4
20260505005202 56 0 0.0 0.0 0.00 0.00 0.00 80 1015.6
20260505005102 56 0 0.0 0.0 0.00 0.00 0.00 80 1015.5
20260505005002 56 0 0.0 0.0 0.00 0.00 0.00 80 1015.2
20260505004902 56 0 0.0 0.0 0.00 0.00 0.00 80 1015.5
20260505004802 56 0 0.0 0.0 0.00 0.00 0.00 79 1015.5
20260505004702 56 0 0.0 0.0 0.00 0.00 0.00 79 1015.4
20260505004602 56 0 0.0 0.0 0.00 0.00 0.00 79 1015.3
20260505004504 56 0 0.0 0.0 0.00 0.00 0.00 79 1015.5
20260505004402 56 0 0.0 0.0 0.00 0.00 0.00 79 1015.4
20260505004302 56 0 0.0 0.0 0.00 0.00 0.00 79 1015.6
20260505004202 56 0 0.0 0.0 0.00 0.00 0.00 79 1015.6
20260505004101 56 0 0.0 0.0 0.00 0.00 0.00 79 1015.5
20260505003901 56 0 0.0 0.0 0.00 0.00 0.00 79 1015.6
20260505003802 56 0 0.0 0.0 0.00 0.00 0.00 79 1015.5
20260505003702 56 0 0.0 0.0 0.00 0.00 0.00 78 1015.5
20260505003602 56 0 0.0 0.0 0.00 0.00 0.00 78 1015.5
20260505003502 56 0 0.0 0.0 0.00 0.00 0.00 78 1015.4
20260505003402 56 0 0.0 0.0 0.00 0.00 0.00 78 1015.4
20260505003301 56 0 0.0 0.0 0.00 0.00 0.00 78 1015.4
20260505003102 56 0 0.0 0.0 0.00 0.00 0.00 78 1015.5
20260505002901 56 0 0.0 0.0 0.00 0.00 0.00 78 1015.2
20260505002802 56 0 0.0 0.0 0.00 0.00 0.00 77 1015.3
20260505002602 56 0 0.0 0.0 0.00 0.00 0.00 77 1015.5
20260505002502 56 0 0.0 0.0 0.00 0.00 0.00 77 1015.5
20260505002402 56 0 0.0 0.0 0.00 0.00 0.00 77 1015.3
20260505002303 56 0 0.0 0.0 0.00 0.00 0.00 77 1015.2
20260505002202 56 0 0.0 0.0 0.00 0.00 0.00 77 1015.3
20260505002102 56 0 0.0 0.0 0.00 0.00 0.00 77 1015.4
20260505002002 56 0 0.0 0.0 0.00 0.00 0.00 77 1015.3
20260505001902 56 0 0.0 0.0 0.00 0.00 0.00 77 1015.7
20260505001802 56 0 0.0 0.0 0.00 0.00 0.00 77 1015.5
20260505001702 56 0 0.0 0.0 0.00 0.00 0.00 77 1015.5
20260505001601 56 0 0.0 0.0 0.00 0.00 0.00 77 1015.4
20260505001503 56 0 0.0 0.0 0.00 0.00 0.00 78 1015.8
20260505001401 56 0 0.0 0.0 0.00 0.00 0.00 78 1015.5
20260505001302 56 0 0.0 0.0 0.00 0.00 0.00 78 1015.4
20260505001202 56 0 0.0 0.0 0.00 0.00 0.00 78 1015.6
20260505001102 56 0 0.0 0.0 0.00 0.00 0.00 78 1015.6
20260505001002 56 0 0.0 0.0 0.00 0.00 0.00 77 1015.8
20260505000902 56 0 0.0 0.0 0.00 0.00 0.00 77 1015.6
20260505000801 56 0 0.0 0.0 0.00 0.00 0.00 77 1015.5
20260505000702 56 0 0.0 0.0 0.00 0.00 0.00 77 1015.8
20260505000502 56 0 0.0 0.0 0.00 0.00 0.00 77 1015.7
20260505000402 56 0 0.0 0.0 0.00 0.00 0.00 77 1015.8
20260505000302 56 0 0.0 0.0 0.00 0.00 0.00 77 1015.6
20260505000204 56 0 0.0 0.0 0.00 0.00 0.00 77 1015.8
20260505000003 56 0 0.0 0.0 0.00 0.00 0.00 77 1015.7
20260504235902 56 0 0.0 0.0 0.00 0.00 0.00 77 1015.8
20260504235802 56 0 0.0 0.0 0.00 0.00 0.00 77 1015.8
20260504235702 56 0 0.0 0.0 0.00 0.00 0.00 77 1015.5
20260504235602 56 0 0.0 0.0 0.00 0.00 0.00 77 1015.7
20260504235502 56 0 0.0 0.0 0.00 0.00 0.00 77 1015.8
20260504235402 56 0 0.0 0.0 0.00 0.00 0.00 77 1015.7
20260504235202 56 0 0.0 0.0 0.00 0.00 0.00 77 1015.9
20260504235102 56 0 0.0 0.0 0.00 0.00 0.00 77 1015.9
20260504235002 56 0 0.0 0.0 0.00 0.00 0.00 77 1015.6
20260504234902 56 0 0.0 0.0 0.00 0.00 0.00 77 1015.6
20260504234802 56 0 0.0 0.0 0.00 0.00 0.00 77 1015.5
20260504234702 56 0 0.0 0.0 0.00 0.00 0.00 77 1015.7
20260504234504 56 0 0.0 0.0 0.00 0.00 0.00 77 1015.6
20260504234402 56 0 0.0 0.0 0.00 0.00 0.00 77 1015.6
20260504234302 56 0 0.0 0.0 0.00 0.00 0.00 77 1015.7
20260504234201 56 0 0.0 0.0 0.00 0.00 0.00 77 1015.4
20260504234102 56 0 0.0 0.0 0.00 0.00 0.00 76 1015.7
20260504234002 56 0 0.0 0.0 0.00 0.00 0.00 76 1015.6
20260504233902 56 0 0.0 0.0 0.00 0.00 0.00 77 1015.7
20260504233801 56 0 0.0 0.0 0.00 0.00 0.00 77 1015.8
20260504233702 56 0 0.0 0.0 0.00 0.00 0.00 77 1015.8
20260504233602 56 0 0.0 0.0 0.00 0.00 0.00 77 1015.7
20260504233502 56 0 0.0 0.0 0.00 0.00 0.00 77 1015.7
20260504233402 56 0 0.0 0.0 0.00 0.00 0.00 77 1015.7
20260504233302 56 0 0.0 0.0 0.00 0.00 0.00 77 1015.5
20260504233102 56 0 0.0 0.0 0.00 0.00 0.00 77 1015.6
20260504233003 56 0 0.0 0.0 0.00 0.00 0.00 77 1015.6
20260504232402 57 0 0.0 0.0 0.00 0.00 0.00 77 1015.8
20260504232303 57 0 0.0 0.0 0.00 0.00 0.00 76 1015.8
20260504232202 57 0 0.0 0.0 0.00 0.00 0.00 76 1015.8
20260504232102 57 248 0.0 4.0 0.00 0.00 0.00 76 1015.8
20260504232002 57 248 0.0 4.0 0.00 0.00 0.00 76 1015.9
20260504231902 57 248 0.0 4.0 0.00 0.00 0.00 76 1015.9
20260504231801 57 248 0.0 4.0 0.00 0.00 0.00 76 1015.8
20260504231702 57 248 0.0 4.0 0.00 0.00 0.00 76 1015.9
20260504231602 57 248 0.0 4.0 0.00 0.00 0.00 76 1015.8
20260504231504 57 248 0.0 4.0 0.00 0.00 0.00 76 1016.0
20260504231402 57 248 0.0 4.0 0.00 0.00 0.00 75 1015.8
20260504231302 57 248 0.0 4.0 0.00 0.00 0.00 75 1016.1
20260504231102 57 0 0.0 0.0 0.00 0.00 0.00 75 1015.9
20260504231001 57 0 0.0 0.0 0.00 0.00 0.00 75 1016.1
20260504230902 57 0 0.0 0.0 0.00 0.00 0.00 75 1016.2
20260504230402 57 0 0.0 0.0 0.00 0.00 0.00 76 1016.0
20260504230301 57 0 0.0 0.0 0.00 0.00 0.00 76 1016.2
20260504230202 57 0 0.0 0.0 0.00 0.00 0.00 76 1016.1
20260504230003 57 0 0.0 0.0 0.00 0.00 0.00 76 1016.0
20260504225902 57 0 0.0 0.0 0.00 0.00 0.00 76 1016.1
20260504225802 57 0 0.0 0.0 0.00 0.00 0.00 76 1016.0
20260504225702 57 0 0.0 0.0 0.00 0.00 0.00 76 1016.2
20260504225602 57 0 0.0 0.0 0.00 0.00 0.00 76 1016.1
20260504225402 58 0 0.0 0.0 0.00 0.00 0.00 76 1016.3